(114080) = 2002 VK34

Discovered at Socorro on 2002-11-05 by LINEAR.

Orbit

Orbit type: Main Belt

Note: WebGL enabled browser required.

epoch2023-02-25.0
epoch JD2460000.5
perihelion date2020-01-20.12194
perihelion JD2458868.62194
argument of perihelion (°)255.06509
ascending node (°)76.66306
inclination (°)13.53216
eccentricity0.2012481
perihelion distance (AU)2.1873236
Tisserand w.r.t. Jupiter3.3
ΔV w.r.t. Earth (km/sec)10.2
semimajor axis (AU)2.7384270
mean anomaly (°)246.17942
mean daily motion (°/day)0.21749640
aphelion distance (AU)3.290
period (years)4.53
P-vector [x]0.85461012
P-vector [y]-0.33896135
P-vector [z]-0.39337862
Q-vector [x]0.46669383
Q-vector [y]0.83353781
Q-vector [z]0.29565453
absolute magnitude15.0
phase slope0.15
uncertainty0
referenceMPO 745323
observations used1013
oppositions17
arc length (days)8044
first opposition used2001
last opposition used2023
residual rms (arc-secs)0.71
perturbers coarse indicatorM-v
perturbers precise indicator003Ek
first observation date used2001-06-16.0
last observation date used2023-06-25.0
computer nameMPCLINUX
JD of orbit computation2456937.325990
perihelion JD uncertainty (days)8.2822E-05
argument of perihelion uncertainty (°)2.2668E-05
ascending node uncertainty (°)1.6379E-05
inclination uncertainty (°)5.1542E-06
eccentricity uncertainty 3.3122E-08
perihelion distance uncertainty (AU)9.3882E-08
Minimum Orbit Intersection Distances (in AU)
for orbit epoch: 2460000.5, reference: E2023-ME7
Mercury1.78006
Venus1.47507
Earth1.22084
Mars0.86422
Jupiter2.17438
Saturn6.00789
Uranus15.2601
Neptune27.1584

Observations

1039 total observations over interval: 2001 06 16.31639 – 2023 06 25.174069
These data are available for download (format description).

Date (UT) J2000 RA J2000 Dec Magn Location Ref
2001 06 16.31639 19 03 48.61 -30 18 06.9 18.9   704 – Lincoln Laboratory ETS, New Mexico MPS 104286
2001 06 16.32888 19 03 48.01 -30 18 12.9 18.5   704 – Lincoln Laboratory ETS, New Mexico MPS 104286
2001 06 16.35345 19 03 46.82 -30 18 26.3 18.6   704 – Lincoln Laboratory ETS, New Mexico MPS 104286
2002 11 05.30956 05 22 20.50 +19 54 49.7 19.3   704 – Lincoln Laboratory ETS, New Mexico MPS 66416
2002 11 05.32677 05 22 19.95 +19 54 53.7 19.8   704 – Lincoln Laboratory ETS, New Mexico MPS 66416
2002 11 05.36099 05 22 18.60 +19 54 59.5 19.9   704 – Lincoln Laboratory ETS, New Mexico MPS 66416
2002 11 06.34231 05 21 42.24 +19 58 04.0 19.9   704 – Lincoln Laboratory ETS, New Mexico MPS 66416
2002 11 06.35912 05 21 41.58 +19 58 07.7 20.3   704 – Lincoln Laboratory ETS, New Mexico MPS 66416
2002 11 06.37593 05 21 40.93 +19 58 11.1 19.7   704 – Lincoln Laboratory ETS, New Mexico MPS 66416
2002 11 06.39273 05 21 40.21 +19 58 15.7 20.1   704 – Lincoln Laboratory ETS, New Mexico MPS 66416
2002 11 14.33804 05 15 48.57 +20 23 39.2 19.4   704 – Lincoln Laboratory ETS, New Mexico MPS 66416
2002 11 14.35588 05 15 47.65 +20 23 43.1 19.7   704 – Lincoln Laboratory ETS, New Mexico MPS 66416
2002 11 14.37360 05 15 46.88 +20 23 44.9 19.7   704 – Lincoln Laboratory ETS, New Mexico MPS 66416
2002 11 14.39122 05 15 45.76 +20 23 49.3 19.7   704 – Lincoln Laboratory ETS, New Mexico MPS 66416
2002 11 14.40902 05 15 44.91 +20 23 53.3 20.0   704 – Lincoln Laboratory ETS, New Mexico MPS 66416
2002 12 05.28850 04 54 44.64 +21 29 30.7 18.4   704 – Lincoln Laboratory ETS, New Mexico MPS 68214
2002 12 05.30398 04 54 43.61 +21 29 33.6 18.2   704 – Lincoln Laboratory ETS, New Mexico MPS 68214
2002 12 05.31929 04 54 42.58 +21 29 36.4 18.5   704 – Lincoln Laboratory ETS, New Mexico MPS 68214
2002 12 05.35000 04 54 40.50 +21 29 42.3 18.6   704 – Lincoln Laboratory ETS, New Mexico MPS 68214
2002 12 10.25791 04 49 19.59 +21 43 54.3 18.7   704 – Lincoln Laboratory ETS, New Mexico MPS 68214
2002 12 10.27325 04 49 18.63 +21 43 57.1 19.0   704 – Lincoln Laboratory ETS, New Mexico MPS 68214
2002 12 10.28860 04 49 17.56 +21 44 00.0 18.7   704 – Lincoln Laboratory ETS, New Mexico MPS 68214
2002 12 14.16487 04 45 10.42 +21 54 48.4 19.1 V 291 – LPL/Spacewatch II MPS 68214
2002 12 14.19000 04 45 08.84 +21 54 52.0 19.0 V 291 – LPL/Spacewatch II MPS 68214
2002 12 14.21523 04 45 07.13 +21 54 56.8 19.2 V 291 – LPL/Spacewatch II MPS 68214
2002 12 16.50931 04 42 44.96 +22 01 11.3 19.7   608 – Haleakala-AMOS MPS 68214
2002 12 16.52014 04 42 44.33 +22 01 12.7 20.0   608 – Haleakala-AMOS MPS 68214
2002 12 16.53083 04 42 43.59 +22 01 14.7 20.6   608 – Haleakala-AMOS MPS 68214
2002 12 21.53991 04 37 49.89 +22 14 29.6 20.2   608 – Haleakala-AMOS MPS 70017
2002 12 21.55041 04 37 49.25 +22 14 31.0 20.4   608 – Haleakala-AMOS MPS 70017
2002 12 21.56083 04 37 48.69 +22 14 31.6 20.5   608 – Haleakala-AMOS MPS 70017
2002 12 31.21931 04 29 45.78 +22 39 06.0 19.1   704 – Lincoln Laboratory ETS, New Mexico MPS 70017
2002 12 31.23441 04 29 45.11 +22 39 08.4 19.5   704 – Lincoln Laboratory ETS, New Mexico MPS 70017
2002 12 31.24939 04 29 44.39 +22 39 11.2 19.3   704 – Lincoln Laboratory ETS, New Mexico MPS 70017
2002 12 31.26431 04 29 43.72 +22 39 12.8 19.4   704 – Lincoln Laboratory ETS, New Mexico MPS 70017
2002 12 31.28070 04 29 42.99 +22 39 15.8 19.1   704 – Lincoln Laboratory ETS, New Mexico MPS 70017
2003 01 04.22701 04 27 04.90 +22 49 09.4 19.6   704 – Lincoln Laboratory ETS, New Mexico MPS 70017
2003 01 04.24154 04 27 04.41 +22 49 10.5 19.7   704 – Lincoln Laboratory ETS, New Mexico MPS 70017
2003 01 04.25605 04 27 03.78 +22 49 14.1 20.4   704 – Lincoln Laboratory ETS, New Mexico MPS 70017
2003 01 04.27053 04 27 03.34 +22 49 14.1 20.1   704 – Lincoln Laboratory ETS, New Mexico MPS 70017
2003 01 04.28518 04 27 02.69 +22 49 17.1 19.8   704 – Lincoln Laboratory ETS, New Mexico MPS 70017
2003 01 08.17382 04 24 52.35 +22 59 06.1 19.1   704 – Lincoln Laboratory ETS, New Mexico MPS 70017
2003 01 08.18837 04 24 51.78 +22 59 08.4 19.3   704 – Lincoln Laboratory ETS, New Mexico MPS 70017
2003 01 08.20289 04 24 51.31 +22 59 11.6 19.5   704 – Lincoln Laboratory ETS, New Mexico MPS 70017
2003 01 08.21750 04 24 50.76 +22 59 13.1 20.1   704 – Lincoln Laboratory ETS, New Mexico MPS 70017
2003 01 08.23212 04 24 50.44 +22 59 15.3 19.7   704 – Lincoln Laboratory ETS, New Mexico MPS 70017
2004 01 17.42839 10 47 52.65 +25 34 23.0 19.2   644 – Palomar Mountain/NEAT MPS 100081
2004 01 17.44950 10 47 52.11 +25 34 32.1 18.9   644 – Palomar Mountain/NEAT MPS 100081
2004 01 17.47093 10 47 51.57 +25 34 41.8 19.8   644 – Palomar Mountain/NEAT MPS 100081
2004 01 17.50761 10 47 50.58 +25 34 58.1 20.5 V 691 – Steward Observatory, Kitt Peak-Spacewatch MPS 100081
2004 01 17.52512 10 47 50.14 +25 35 05.6 20.3 V 691 – Steward Observatory, Kitt Peak-Spacewatch MPS 100081
2004 01 17.54271 10 47 49.73 +25 35 13.3 20.7 V 691 – Steward Observatory, Kitt Peak-Spacewatch MPS 100081
2004 02 14.27811 10 29 04.43 +28 58 51.8 19.4   704 – Lincoln Laboratory ETS, New Mexico MPS 100081
2004 02 14.30221 10 29 03.09 +28 59 02.1 19.9   704 – Lincoln Laboratory ETS, New Mexico MPS 100081
2004 02 14.31402 10 29 02.48 +28 59 05.5 20.0   704 – Lincoln Laboratory ETS, New Mexico MPS 100081
2004 02 14.32586 10 29 01.94 +28 59 10.7 19.9   704 – Lincoln Laboratory ETS, New Mexico MPS 100081
2004 03 25.22721 09 56 56.96 +30 50 43.8 19.7   704 – Lincoln Laboratory ETS, New Mexico MPS 102191
2004 03 25.25937 09 56 55.83 +30 50 41.2 19.7   704 – Lincoln Laboratory ETS, New Mexico MPS 102191
2004 03 25.26995 09 56 55.48 +30 50 40.8 19.6   704 – Lincoln Laboratory ETS, New Mexico MPS 102191
2004 04 15.230220 09 51 03.546 +29 54 31.64 20.54 V 645 – Apache Point-Sloan Digital Sky Survey MPS 136984
2004 04 15.233692 09 51 03.538 +29 54 30.77 21.41   645 – Apache Point-Sloan Digital Sky Survey MPS 136984
2004 05 14.158030 09 58 38.688 +27 18 01.48 20.83 V 645 – Apache Point-Sloan Digital Sky Survey MPS 136984
2004 05 14.161502 09 58 38.792 +27 18 00.16 21.77   645 – Apache Point-Sloan Digital Sky Survey MPS 136984
2005 04 07.29931 15 03 00.34 -03 24 40.0 18.9 R 699 – Lowell Observatory-LONEOS MPS 130716
2005 04 07.31230 15 02 59.83 -03 24 37.8   699 – Lowell Observatory-LONEOS MPS 130716
2005 04 07.32530 15 02 59.35 -03 24 34.9   699 – Lowell Observatory-LONEOS MPS 130716
2005 04 07.33828 15 02 58.86 -03 24 33.9   699 – Lowell Observatory-LONEOS MPS 130716
2005 04 12.35666 14 59 35.61 -03 11 16.2 18.8 R 699 – Lowell Observatory-LONEOS MPS 131657
2005 04 12.37128 14 59 34.93 -03 11 13.6   699 – Lowell Observatory-LONEOS MPS 131657
2005 04 12.38589 14 59 34.32 -03 11 11.6   699 – Lowell Observatory-LONEOS MPS 131657
2005 04 12.40048 14 59 33.59 -03 11 09.6   699 – Lowell Observatory-LONEOS MPS 131657
2005 04 18.35118 14 54 56.65 -02 56 25.8 18.9 R 703 – Catalina Sky Survey MPS 132585
2005 04 18.35968 14 54 56.20 -02 56 24.9 18.8 R 703 – Catalina Sky Survey MPS 132585
2005 04 18.36817 14 54 55.73 -02 56 23.7 18.1 R 703 – Catalina Sky Survey MPS 132585
2005 04 18.37664 14 54 55.31 -02 56 22.6 18.4 R 703 – Catalina Sky Survey MPS 132585
2005 04 30.39132 14 44 12.99 -02 33 37.2 19.0   644 – Palomar Mountain/NEAT MPS 133963
2005 04 30.39257 14 44 12.92 -02 33 36.9 18.7   644 – Palomar Mountain/NEAT MPS 133963
2005 04 30.41150 14 44 11.81 -02 33 35.3 18.5   644 – Palomar Mountain/NEAT MPS 133963
2005 04 30.41396 14 44 11.67 -02 33 35.2 18.5   644 – Palomar Mountain/NEAT MPS 133963
2005 04 30.43138 14 44 10.67 -02 33 33.6 19.2   644 – Palomar Mountain/NEAT MPS 133963
2005 04 30.43264 14 44 10.60 -02 33 33.6 19.5   644 – Palomar Mountain/NEAT MPS 133963
2005 05 04.32677 14 40 29.96 -02 29 04.0 19.3 V 703 – Catalina Sky Survey MPS 133308
2005 05 04.33541 14 40 29.42 -02 29 03.5 19.1 V 703 – Catalina Sky Survey MPS 133308
2005 05 04.34424 14 40 28.95 -02 29 02.5 19.2 V 703 – Catalina Sky Survey MPS 133308
2005 05 04.35293 14 40 28.41 -02 29 01.8 18.8 V 703 – Catalina Sky Survey MPS 133308
2005 05 11.30644 14 33 55.73 -02 25 29.9 18.6 R 699 – Lowell Observatory-LONEOS MPS 133963
2005 05 11.31468 14 33 55.14 -02 25 30.1 18.4 R 703 – Catalina Sky Survey MPS 133963
